Regional Weather Roundup
Issued by NWS Little Rock, AR

Home | Current Version | Previous Version | Text Only | Print | Product List | Glossary On
Versions: 1 2 3 4 5 6 7 8 9 10 11 12 13 14 15 16 17 18 19 20 21 22 23 24 25 26 27
000
ASUS44 KLZK 311305
RWRLZK

WEATHER ROUNDUP FOR ARKANSAS
NATIONAL WEATHER SERVICE LITTLE ROCK AR
800 AM CDT FRI OCT 31 2014

NOTE: "FAIR" INDICATES FEW OR NO CLOUDS BELOW 12,000 FEET WITH NO
SIGNIFICANT WEATHER AND/OR OBSTRUCTIONS TO VISIBILITY.

ARZ001-003-010-029-311400-
NORTHWEST ARKANSAS

CITY           SKY/WX    TMP DP  RH WIND       PRES   REMARKS
FAYETTEVILLE   CLOUDY    47  40  76 VRB6      30.27R
FORT SMITH     CLEAR     50  41  71 N9        30.25R
HARRISON       CLOUDY    47  40  76 N10       30.23R
BENTONVILLE    CLOUDY    46  37  71 N10G17    30.27R
ROGERS         CLOUDY    45  39  79 N8        30.27R
SILOAM SPGS    CLOUDY    46  36  66 N16G22    30.28S
HIGHFILL       LGT RAIN  47  41  80 N16       30.27R
SPRINGDALE     MOCLDY    46  39  76 N12       30.28R
$$

ARZ004-005-016-311400-
NORTH CENTRAL ARKANSAS

CITY           SKY/WX    TMP DP  RH WIND       PRES   REMARKS
BATESVILLE     CLEAR     50  43  76 NW9       30.15R
FLIPPIN        PTCLDY    48  37  66 NW10      30.21R
MTN HOME       PTCLDY    47  40  76 NW5       30.20R
$$

ARZ040-041-311400-
WEST CENTRAL ARKANSAS

CITY           SKY/WX    TMP DP  RH WIND       PRES   REMARKS
MENA           CLEAR     52  43  71 CALM      30.21R
MOUNT IDA      CLEAR     50  43  77 NW5       30.17R
$$

ARZ009-017-025-026-028-311400-
NORTHEAST ARKANSAS

CITY           SKY/WX    TMP DP  RH WIND       PRES   REMARKS
CORNING        FAIR      48  45  87 N13       30.14R
JONESBORO      CLEAR     49  45  86 N10       30.10R
NEWPORT        CLEAR     50  45  83 N15       30.13R
WALNUT RIDGE   CLEAR     48  43  81 N14       30.14R
BLYTHEVILLE    CLEAR     49  47  93 N14       30.08R
NW BLYTHEVILLE CLEAR     50  46  87 N7        30.08
$$

ARZ022-023-033-042-044-311400-
CENTRAL ARKANSAS

CITY           SKY/WX    TMP DP  RH WIND       PRES   REMARKS
LITTLE ROCK    CLEAR     54  42  64 NW12      30.14R
N LITTLE ROCK    N/A     52  45  77 NW8G16    30.14R
JACKSONVILLE   CLEAR     51  43  73 NW7       30.15R
SEARCY         CLEAR     52  44  74 NW8       30.16R
HOT SPRINGS    CLEAR     52  42  69 N7        30.17R
RUSSELLVILLE   CLEAR     47  42  83 NW3       30.20R
$$

ARZ036-311400-
EAST ARKANSAS

CITY           SKY/WX    TMP DP  RH WIND       PRES   REMARKS
WEST MEMPHIS   CLEAR     49  47  93 N7        30.07R
$$

ARZ050-053-066-070-073-311400-
SOUTHWEST ARKANSAS

CITY           SKY/WX    TMP DP  RH WIND       PRES   REMARKS
ARKADELPHIA    FAIR      53  47  80 NW6       30.15R
CAMDEN         CLEAR     41  41 100 CALM      30.14R FOG
TEXARKANA      CLEAR     51  43  74 NW8       30.17R
DE QUEEN       CLEAR     39  38  96 E3        30.18R FOG
$$

ARZ056-057-069-311400-
SOUTHEAST ARKANSAS

CITY           SKY/WX    TMP DP  RH WIND       PRES   REMARKS
PINE BLUFF     CLEAR     54  43  66 NW12G18   30.12R
STUTTGART      FAIR      52  45  76 N13       30.11R
MONTICELLO     CLEAR     52  44  74 NW8       30.10R

$$





USA.gov is the U.S. government's official web portal to all federal, state and local government web resources and services.